Time,TemperatureF,DewpointF,PressureIn,WindDirection,WindDirectionDegrees,WindSpeedMPH,WindSpeedGustMPH,Humidity,HourlyPrecipIn,Conditions,Clouds,dailyrainin,SoftwareType,DateUTC
2013-01-16 00:02:00,23.0,16.0,29.75,South,177,11.0,20.0,73,0.00,,,0.00,,2013-01-16 06:02:00,
2013-01-16 00:12:00,23.0,16.0,29.75,South,177,11.0,20.0,73,0.00,,,0.00,,2013-01-16 06:12:00,
2013-01-16 00:22:00,23.0,16.0,29.74,South,178,11.0,21.0,73,0.00,,,0.00,,2013-01-16 06:22:00,
2013-01-16 00:32:00,24.0,16.0,29.72,South,177,12.0,25.0,72,0.00,,,0.00,,2013-01-16 06:32:00,
2013-01-16 00:43:00,24.0,16.0,29.72,South,177,12.0,25.0,72,0.00,,,0.00,,2013-01-16 06:43:00,
2013-01-16 00:53:00,24.0,16.0,29.71,South,176,12.0,22.0,72,0.00,,,0.00,,2013-01-16 06:53:00,
2013-01-16 01:02:00,24.0,16.0,29.70,South,176,12.0,18.0,71,0.00,,,0.00,,2013-01-16 07:02:00,
2013-01-16 01:12:00,24.0,16.0,29.70,South,176,12.0,18.0,71,0.00,,,0.00,,2013-01-16 07:12:00,
2013-01-16 01:22:00,25.0,17.0,29.69,South,173,12.0,21.0,70,0.00,,,0.00,,2013-01-16 07:22:00,
2013-01-16 01:32:00,25.0,16.0,29.68,South,181,13.0,25.0,68,0.00,,,0.00,,2013-01-16 07:32:00,
2013-01-16 01:42:00,25.0,16.0,29.68,South,181,13.0,25.0,68,0.00,,,0.00,,2013-01-16 07:42:00,
2013-01-16 01:52:00,25.0,16.0,29.67,South,186,12.0,22.0,69,0.00,,,0.00,,2013-01-16 07:52:00,
2013-01-16 02:02:00,25.0,17.0,29.66,South,185,13.0,25.0,70,0.00,,,0.00,,2013-01-16 08:02:00,
2013-01-16 02:12:00,25.0,17.0,29.66,South,185,13.0,25.0,70,0.00,,,0.00,,2013-01-16 08:12:00,
2013-01-16 02:22:00,25.0,17.0,29.65,South,181,13.0,27.0,72,0.00,,,0.00,,2013-01-16 08:22:00,
2013-01-16 02:32:00,25.0,17.0,29.64,South,181,15.0,23.0,72,0.00,,,0.00,,2013-01-16 08:32:00,
2013-01-16 02:42:00,25.0,17.0,29.64,South,181,15.0,23.0,72,0.00,,,0.00,,2013-01-16 08:42:00,
2013-01-16 02:53:00,25.0,17.0,29.63,South,183,14.0,24.0,70,0.00,,,0.00,,2013-01-16 08:53:00,
2013-01-16 03:02:00,26.0,17.0,29.62,South,179,14.0,25.0,69,0.00,,,0.00,,2013-01-16 09:02:00,
2013-01-16 03:12:00,26.0,17.0,29.62,South,179,14.0,25.0,69,0.00,,,0.00,,2013-01-16 09:12:00,
2013-01-16 03:22:00,26.0,18.0,29.62,South,187,14.0,23.0,70,0.00,,,0.00,,2013-01-16 09:22:00,
2013-01-16 03:32:00,26.0,18.0,29.62,SSW,199,14.0,23.0,72,0.00,,,0.00,,2013-01-16 09:32:00,
2013-01-16 03:42:00,26.0,18.0,29.62,SSW,199,14.0,23.0,72,0.00,,,0.00,,2013-01-16 09:42:00,
2013-01-16 03:53:00,26.0,20.0,29.61,SSW,198,16.0,23.0,77,0.00,,,0.00,,2013-01-16 09:53:00,
2013-01-16 04:02:00,26.0,21.0,29.61,SSW,201,17.0,34.0,80,0.00,,,0.00,,2013-01-16 10:02:00,
2013-01-16 04:12:00,26.0,21.0,29.61,SSW,201,17.0,34.0,80,0.00,,,0.00,,2013-01-16 10:12:00,
2013-01-16 04:22:00,25.0,20.0,29.60,SSW,201,17.0,24.0,81,0.00,,,0.00,,2013-01-16 10:22:00,
2013-01-16 04:32:00,25.0,21.0,29.60,SSW,201,14.0,20.0,83,0.00,,,0.00,,2013-01-16 10:32:00,
2013-01-16 04:42:00,25.0,21.0,29.60,SSW,201,14.0,20.0,83,0.00,,,0.00,,2013-01-16 10:42:00,
2013-01-16 04:53:00,25.0,21.0,29.59,SSW,199,13.0,18.0,85,0.00,,,0.00,,2013-01-16 10:53:00,
2013-01-16 05:02:00,24.0,21.0,29.59,SSW,201,12.0,18.0,87,0.00,,,0.00,,2013-01-16 11:02:00,
2013-01-16 05:12:00,24.0,21.0,29.59,SSW,201,12.0,18.0,87,0.00,,,0.00,,2013-01-16 11:12:00,
2013-01-16 05:22:00,24.0,21.0,29.59,SSW,204,10.0,20.0,88,0.00,,,0.00,,2013-01-16 11:22:00,
2013-01-16 05:32:00,25.0,22.0,29.59,SSW,201,10.0,17.0,88,0.00,,,0.00,,2013-01-16 11:32:00,
2013-01-16 05:42:00,25.0,22.0,29.59,SSW,201,10.0,17.0,88,0.00,,,0.00,,2013-01-16 11:42:00,
2013-01-16 05:52:00,25.0,22.0,29.59,SW,214,11.0,18.0,89,0.00,,,0.00,,2013-01-16 11:52:00,
2013-01-16 06:03:00,25.0,22.0,29.59,SSW,212,9.0,16.0,89,0.00,,,0.00,,2013-01-16 12:03:00,
2013-01-16 06:13:00,25.0,22.0,29.59,SSW,212,9.0,16.0,89,0.00,,,0.00,,2013-01-16 12:13:00,
2013-01-16 06:22:00,25.0,22.0,29.59,SSW,206,9.0,14.0,89,0.00,,,0.00,,2013-01-16 12:22:00,
2013-01-16 06:33:00,26.0,23.0,29.59,SW,226,7.0,11.0,89,0.00,,,0.00,,2013-01-16 12:33:00,
2013-01-16 06:43:00,26.0,23.0,29.59,SW,226,7.0,11.0,89,0.00,,,0.00,,2013-01-16 12:43:00,
2013-01-16 06:53:00,26.0,23.0,29.60,SW,223,6.0,11.0,89,0.00,,,0.00,,2013-01-16 12:53:00,
2013-01-16 07:03:00,26.0,23.0,29.59,SSW,204,9.0,14.0,90,0.00,,,0.00,,2013-01-16 13:03:00,
2013-01-16 07:12:00,26.0,23.0,29.59,SSW,204,9.0,14.0,90,0.00,,,0.00,,2013-01-16 13:12:00,
2013-01-16 07:22:00,26.0,23.0,29.59,SSW,202,7.0,12.0,90,0.00,,,0.00,,2013-01-16 13:22:00,
2013-01-16 07:33:00,27.0,24.0,29.61,SW,232,6.0,10.0,90,0.00,,,0.00,,2013-01-16 13:33:00,
2013-01-16 07:43:00,27.0,24.0,29.61,SW,232,6.0,10.0,90,0.00,,,0.00,,2013-01-16 13:43:00,
2013-01-16 07:53:00,27.0,24.0,29.61,SW,219,6.0,10.0,90,0.00,,,0.00,,2013-01-16 13:53:00,
2013-01-16 08:03:00,27.0,24.0,29.61,SW,214,6.0,8.0,90,0.00,,,0.00,,2013-01-16 14:03:00,
2013-01-16 08:12:00,27.0,24.0,29.61,SW,214,6.0,8.0,90,0.00,,,0.00,,2013-01-16 14:12:00,
2013-01-16 08:23:00,27.0,24.0,29.62,SW,223,4.0,8.0,90,0.00,,,0.00,,2013-01-16 14:23:00,
2013-01-16 08:32:00,28.0,25.0,29.63,SW,235,5.0,8.0,90,0.00,,,0.00,,2013-01-16 14:32:00,
2013-01-16 08:42:00,28.0,25.0,29.63,SW,235,5.0,8.0,90,0.00,,,0.00,,2013-01-16 14:42:00,
2013-01-16 08:53:00,29.0,26.0,29.64,WSW,250,6.0,9.0,90,0.00,,,0.00,,2013-01-16 14:53:00,
2013-01-16 09:03:00,29.0,26.0,29.64,WSW,243,5.0,9.0,89,0.00,,,0.00,,2013-01-16 15:03:00,
2013-01-16 09:12:00,29.0,26.0,29.64,WSW,243,5.0,9.0,89,0.00,,,0.00,,2013-01-16 15:12:00,
2013-01-16 09:23:00,29.0,26.0,29.64,SW,232,4.0,6.0,89,0.00,,,0.00,,2013-01-16 15:23:00,
2013-01-16 09:33:00,30.0,27.0,29.65,WSW,251,5.0,9.0,89,0.00,,,0.00,,2013-01-16 15:33:00,
2013-01-16 09:43:00,30.0,27.0,29.65,WSW,251,5.0,9.0,89,0.00,,,0.00,,2013-01-16 15:43:00,
2013-01-16 09:53:00,31.0,28.0,29.66,West,260,4.0,9.0,88,0.00,,,0.00,,2013-01-16 15:53:00,
2013-01-16 10:03:00,31.0,28.0,29.67,West,265,5.0,8.0,87,0.00,,,0.00,,2013-01-16 16:03:00,
2013-01-16 10:12:00,31.0,28.0,29.67,West,265,5.0,8.0,87,0.00,,,0.00,,2013-01-16 16:12:00,
2013-01-16 10:22:00,32.0,28.0,29.67,West,278,6.0,14.0,85,0.00,,,0.00,,2013-01-16 16:22:00,
2013-01-16 10:33:00,32.0,27.0,29.68,West,278,10.0,17.0,82,0.00,,,0.00,,2013-01-16 16:33:00,
2013-01-16 10:42:00,32.0,27.0,29.68,West,278,10.0,17.0,82,0.00,,,0.00,,2013-01-16 16:42:00,
2013-01-16 10:53:00,32.0,26.0,29.69,WNW,284,13.0,21.0,79,0.00,,,0.00,,2013-01-16 16:53:00,
2013-01-16 11:03:00,32.0,25.0,29.70,West,278,13.0,19.0,75,0.00,,,0.00,,2013-01-16 17:03:00,
2013-01-16 11:12:00,32.0,25.0,29.70,West,278,13.0,19.0,75,0.00,,,0.00,,2013-01-16 17:12:00,
2013-01-16 11:22:00,32.0,25.0,29.71,WNW,286,15.0,23.0,74,0.00,,,0.00,,2013-01-16 17:22:00,
2013-01-16 11:33:00,31.0,23.0,29.72,WNW,285,13.0,24.0,73,0.00,,,0.00,,2013-01-16 17:33:00,
2013-01-16 11:43:00,31.0,23.0,29.72,WNW,285,13.0,24.0,73,0.00,,,0.00,,2013-01-16 17:43:00,
2013-01-16 11:53:00,31.0,23.0,29.72,West,280,11.0,17.0,73,0.00,,,0.00,,2013-01-16 17:53:00,
2013-01-16 12:02:00,30.0,22.0,29.72,WNW,292,11.0,17.0,73,0.00,,,0.00,,2013-01-16 18:02:00,
2013-01-16 12:13:00,30.0,22.0,29.72,WNW,292,11.0,17.0,73,0.00,,,0.00,,2013-01-16 18:13:00,
2013-01-16 12:23:00,30.0,22.0,29.73,WNW,288,12.0,20.0,73,0.00,,,0.00,,2013-01-16 18:23:00,
2013-01-16 12:33:00,30.0,22.0,29.74,WNW,287,14.0,19.0,72,0.00,,,0.00,,2013-01-16 18:33:00,
2013-01-16 12:42:00,30.0,22.0,29.74,WNW,287,14.0,19.0,72,0.00,,,0.00,,2013-01-16 18:42:00,
2013-01-16 12:53:00,30.0,22.0,29.75,WNW,289,13.0,18.0,73,0.00,,,0.00,,2013-01-16 18:53:00,
2013-01-16 13:03:00,30.0,22.0,29.75,WNW,292,11.0,16.0,71,0.00,,,0.00,,2013-01-16 19:03:00,
2013-01-16 13:12:00,30.0,22.0,29.75,WNW,292,11.0,16.0,71,0.00,,,0.00,,2013-01-16 19:12:00,
2013-01-16 13:23:00,29.0,21.0,29.76,WNW,286,9.0,15.0,71,0.00,,,0.00,,2013-01-16 19:23:00,
2013-01-16 13:33:00,29.0,20.0,29.76,WNW,293,9.0,13.0,70,0.00,,,0.00,,2013-01-16 19:33:00,
2013-01-16 13:43:00,29.0,20.0,29.76,WNW,293,9.0,13.0,70,0.00,,,0.00,,2013-01-16 19:43:00,
2013-01-16 13:53:00,29.0,20.0,29.77,WNW,291,11.0,16.0,70,0.00,,,0.00,,2013-01-16 19:53:00,
2013-01-16 14:03:00,29.0,20.0,29.78,WNW,294,10.0,15.0,70,0.00,,,0.00,,2013-01-16 20:03:00,
2013-01-16 14:12:00,29.0,20.0,29.78,WNW,294,10.0,15.0,70,0.00,,,0.00,,2013-01-16 20:12:00,
2013-01-16 14:23:00,29.0,20.0,29.79,WNW,288,11.0,16.0,68,0.00,,,0.00,,2013-01-16 20:23:00,
2013-01-16 14:33:00,29.0,19.0,29.80,WNW,294,12.0,17.0,65,0.00,,,0.00,,2013-01-16 20:33:00,
2013-01-16 14:42:00,29.0,19.0,29.80,WNW,294,12.0,17.0,65,0.00,,,0.00,,2013-01-16 20:42:00,
2013-01-16 14:53:00,29.0,18.0,29.81,WNW,293,11.0,16.0,64,0.00,,,0.00,,2013-01-16 20:53:00,
2013-01-16 15:02:00,29.0,17.0,29.83,WNW,294,12.0,17.0,60,0.00,,,0.00,,2013-01-16 21:02:00,
2013-01-16 15:12:00,29.0,17.0,29.83,WNW,294,12.0,17.0,60,0.00,,,0.00,,2013-01-16 21:12:00,
2013-01-16 15:22:00,28.0,13.0,29.84,NW,311,11.0,19.0,53,0.00,,,0.00,,2013-01-16 21:22:00,
2013-01-16 15:33:00,27.0,9.0,29.85,NW,320,12.0,19.0,46,0.00,,,0.00,,2013-01-16 21:33:00,
2013-01-16 15:43:00,27.0,9.0,29.85,NW,320,12.0,19.0,46,0.00,,,0.00,,2013-01-16 21:43:00,
2013-01-16 15:53:00,27.0,10.0,29.86,NW,317,9.0,15.0,49,0.00,,,0.00,,2013-01-16 21:53:00,
2013-01-16 16:02:00,26.0,11.0,29.88,NW,325,11.0,15.0,53,0.00,,,0.00,,2013-01-16 22:02:00,
2013-01-16 16:12:00,26.0,11.0,29.88,NW,325,11.0,15.0,53,0.00,,,0.00,,2013-01-16 22:12:00,
2013-01-16 16:22:00,26.0,13.0,29.89,NW,326,8.0,13.0,57,0.00,,,0.00,,2013-01-16 22:22:00,
2013-01-16 16:33:00,25.0,11.0,29.91,NW,323,13.0,19.0,54,0.00,,,0.00,,2013-01-16 22:33:00,
2013-01-16 16:43:00,25.0,11.0,29.91,NW,323,13.0,19.0,54,0.00,,,0.00,,2013-01-16 22:43:00,
2013-01-16 16:53:00,24.0,9.0,29.93,NW,318,11.0,19.0,53,0.00,,,0.00,,2013-01-16 22:53:00,
2013-01-16 17:02:00,23.0,7.0,29.94,NW,323,13.0,20.0,50,0.00,,,0.00,,2013-01-16 23:02:00,
2013-01-16 17:12:00,23.0,7.0,29.94,NW,323,13.0,20.0,50,0.00,,,0.00,,2013-01-16 23:12:00,
2013-01-16 17:23:00,22.0,6.0,29.96,NW,311,13.0,20.0,50,0.00,,,0.00,,2013-01-16 23:23:00,
2013-01-16 17:32:00,22.0,7.0,29.97,NW,322,12.0,18.0,51,0.00,,,0.00,,2013-01-16 23:32:00,
2013-01-16 17:42:00,22.0,7.0,29.97,NW,322,12.0,18.0,51,0.00,,,0.00,,2013-01-16 23:42:00,
2013-01-16 17:53:00,21.0,4.0,29.98,NW,309,13.0,19.0,46,0.00,,,0.00,,2013-01-16 23:53:00,
2013-01-16 18:02:00,20.0,3.0,29.99,NW,307,8.0,13.0,47,0.00,,,0.00,,2013-01-17 00:02:00,
2013-01-16 18:12:00,20.0,3.0,29.99,NW,307,8.0,13.0,47,0.00,,,0.00,,2013-01-17 00:12:00,
2013-01-16 18:22:00,20.0,3.0,30.00,NW,313,8.0,13.0,47,0.00,,,0.00,,2013-01-17 00:22:00,
2013-01-16 18:32:00,19.0,2.0,30.01,NW,308,8.0,11.0,47,0.00,,,0.00,,2013-01-17 00:32:00,
2013-01-16 18:42:00,19.0,2.0,30.01,NW,308,8.0,11.0,47,0.00,,,0.00,,2013-01-17 00:42:00,
2013-01-16 18:52:00,18.0,2.0,30.04,NW,306,8.0,11.0,48,0.00,,,0.00,,2013-01-17 00:52:00,
2013-01-16 19:02:00,18.0,2.0,30.05,WNW,293,7.0,14.0,48,0.00,,,0.00,,2013-01-17 01:02:00,
2013-01-16 19:12:00,18.0,2.0,30.05,WNW,293,7.0,14.0,48,0.00,,,0.00,,2013-01-17 01:12:00,
2013-01-16 19:22:00,18.0,0.0,30.06,NW,307,11.0,18.0,44,0.00,,,0.00,,2013-01-17 01:22:00,
2013-01-16 19:32:00,18.0,-1.0,30.07,WNW,303,9.0,14.0,42,0.00,,,0.00,,2013-01-17 01:32:00,
2013-01-16 19:42:00,18.0,-1.0,30.07,WNW,303,9.0,14.0,42,0.00,,,0.00,,2013-01-17 01:42:00,
2013-01-16 19:52:00,17.0,-2.0,30.07,NW,304,6.0,9.0,43,0.00,,,0.00,,2013-01-17 01:52:00,
2013-01-16 20:02:00,16.0,-2.0,30.08,WNW,285,6.0,8.0,45,0.00,,,0.00,,2013-01-17 02:02:00,
2013-01-16 20:12:00,16.0,-2.0,30.08,WNW,285,6.0,8.0,45,0.00,,,0.00,,2013-01-17 02:12:00,
2013-01-16 20:22:00,16.0,-2.0,30.09,WNW,286,8.0,14.0,45,0.00,,,0.00,,2013-01-17 02:22:00,
2013-01-16 20:32:00,16.0,-2.0,30.10,WNW,292,10.0,14.0,44,0.00,,,0.00,,2013-01-17 02:32:00,
2013-01-16 20:42:00,16.0,-2.0,30.10,WNW,292,10.0,14.0,44,0.00,,,0.00,,2013-01-17 02:42:00,
2013-01-16 20:52:00,16.0,-2.0,30.10,WNW,292,10.0,14.0,44,0.00,,,0.00,,2013-01-17 02:52:00,
2013-01-16 21:02:00,15.0,-3.0,30.11,NW,312,11.0,18.0,44,0.00,,,0.00,,2013-01-17 03:02:00,
2013-01-16 21:12:00,15.0,-3.0,30.11,NW,312,11.0,18.0,44,0.00,,,0.00,,2013-01-17 03:12:00,
2013-01-16 21:22:00,14.0,-2.0,30.11,NW,322,9.0,15.0,47,0.00,,,0.00,,2013-01-17 03:22:00,
2013-01-16 21:32:00,14.0,-2.0,30.11,NW,316,11.0,16.0,48,0.00,,,0.00,,2013-01-17 03:32:00,
2013-01-16 21:42:00,14.0,-2.0,30.11,NW,316,11.0,16.0,48,0.00,,,0.00,,2013-01-17 03:42:00,
2013-01-16 21:52:00,14.0,-1.0,30.14,NW,310,13.0,18.0,50,0.00,,,0.00,,2013-01-17 03:52:00,
2013-01-16 22:02:00,13.0,-2.0,30.13,NW,308,8.0,13.0,51,0.00,,,0.00,,2013-01-17 04:02:00,
2013-01-16 22:12:00,12.0,-3.0,30.13,WNW,302,10.0,15.0,49,0.00,,,0.00,,2013-01-17 04:12:00,
2013-01-16 22:22:00,12.0,-3.0,30.13,WNW,302,10.0,15.0,49,0.00,,,0.00,,2013-01-17 04:22:00,
2013-01-16 22:32:00,12.0,-3.0,30.14,WNW,301,8.0,13.0,50,0.00,,,0.00,,2013-01-17 04:32:00,
2013-01-16 22:42:00,12.0,-3.0,30.14,WNW,301,8.0,13.0,50,0.00,,,0.00,,2013-01-17 04:42:00,
2013-01-16 22:52:00,12.0,-3.0,30.15,WNW,303,9.0,12.0,50,0.00,,,0.00,,2013-01-17 04:52:00,
2013-01-16 23:04:00,11.0,-3.0,30.17,WNW,292,6.0,10.0,52,0.00,,,0.00,,2013-01-17 05:04:00,
2013-01-16 23:12:00,11.0,-3.0,30.17,WNW,292,6.0,10.0,52,0.00,,,0.00,,2013-01-17 05:12:00,
2013-01-16 23:22:00,11.0,-3.0,30.17,WNW,296,6.0,8.0,53,0.00,,,0.00,,2013-01-17 05:22:00,
2013-01-16 23:33:00,10.0,-4.0,30.18,WNW,287,6.0,9.0,53,0.00,,,0.00,,2013-01-17 05:33:00,
2013-01-16 23:42:00,10.0,-4.0,30.18,WNW,287,6.0,9.0,53,0.00,,,0.00,,2013-01-17 05:42:00,
2013-01-16 23:53:00,10.0,-3.0,30.20,WNW,285,6.0,10.0,55,0.00,,,0.00,,2013-01-17 05:53:00,